Location: Boda
(47.1872°N, 9.5454°E)
Time: 07:24:56
(UTC+00:00)

Cosmos 2227 Rocket - Pass Details

Date: 14 May 2021
Orbit: 840 x 844 km, 71.0° (Epoch: 16 June)

Event Time Altitude Azimuth Distance (km) Brightness Sun altitude
Rises 00:10:51 0° 336° (NNW) 3,406 6.2 -23.1°
Reaches altitude 10° 00:13:25 10° 342° (NNW) 2,467 5.4 -23.0°
Maximum altitude 00:18:50 45° 55° (NE) 1,134 3.1 -22.8°
Enters shadow 00:23:58 11° 127° (SE) 2,361 4.3 -22.5°
